Location: Caoba
(9.7667°N, 67.4833°W)
Time: 20:48:04
(UTC+00:00)

GOES 2 Rocket - Pass Details

Date: 08 December 2024
Orbit: 569 x 1662 km, 28.4° (Epoch: 14 January)

Event Time Altitude Azimuth Distance (km) Brightness Sun altitude
Exits shadow 09:26:28 14° 346° (NNW) 1,632 4.9 -16.5°
Maximum altitude 09:28:42 21° 24° (NNE) 1,399 4.9 -16.0°
Drops below altitude 10° 09:32:18 10° 73° (ENE) 2,108 6.6 -15.1°
Sets 09:35:28 0° 89° (E) 3,191 8.1 -14.4°
